Weather in Valamaz

Russia / Udmurt Republic     57°27′18″N   52°03′53″E
temp.,
°C
wind,
m/s
gust,
m/s
humid.,
%
clouds,
%
prec.,
mm/h
press.,
hPa
HPBL,
m
28 february, sun
sun2801:00−14ne499397 0.1 1005422
04:00−15ne499392 0.2 1007373
07:00−18ne389496 0.1 1008324
10:00−18nne379185 0.1 1009304
13:00−15nne368871 0.0 1009417
16:00−14nne478885 0.0 1011536
19:00−17nne3795100 0.0 1013168
22:00−20nne259662 0.0 1015113
1 march, mon
mon101:00−21n25970 0.0 101794
04:00−22nne24970 0.0 101976
07:00−23nne23970 0.0 102030
10:00−18nne13900 0.0 1021238
13:00−12nw128278 0.0 1020432
16:00−11w128488 0.0 1019482
19:00−16sw229675 0.0 101820
22:00−17ssw379686 0.0 1016183
2 march, tue
tue201:00−16s4996100 0.0 1013287
04:00−15s41195100 0.1 1009358
07:00−13s41194100 0.8 1005461
10:00−11s51093100 1.7 1003511
13:00−9s5992100 0.9 1001527
16:00−7s4893100 1.2 999521
19:00−8sse4895100 0.7 998407
22:00−8se2696100 1.9 998288
3 march, wed
wed301:00−9e2297100 0.5 99846
04:00−9nne1296100 0.9 99830
07:00−10n2496100 0.1 99898
10:00−8nnw3593100 0.1 1000328
13:00−4n4788100 0.1 1000732
16:00−3nnw4890100 0.3 1002795
19:00−7nnw4128599 0.2 1003616
22:00−10nw3119449 0.2 1005295
4 march, thu
thu401:00−12nw399553 0.0 1006235
04:00−14nw379767 0.0 1007184
07:00−15wnw379779 0.0 1008141
10:00−11wnw369376 0.0 1009287
13:00−7w348897 0.0 1009535
16:00−6sw368799 0.1 1007728
19:00−9ssw4119499 0.0 1006430
22:00−8ssw5129399 0.2 1003621